Location: Unspecified
(0.0000°N, 0.0000°E)
Time: 06:34:21
(UTC+00:00)

Courier 1B - Pass Details

Date: 28 September 2023
Orbit: 962 x 1208 km, 28.3° (Epoch: 06 December)

Event Time Altitude Azimuth Distance (km) Brightness Sun altitude
Rises 22:24:23 0° 272° (W) 3,886 - -68.3°
Reaches altitude 10° 22:27:48 10° 258° (WSW) 2,885 - -69.2°
Maximum altitude 22:33:12 23° 208° (SSW) 2,006 - -70.5°
Drops below altitude 10° 22:38:24 10° 157° (SSE) 2,760 - -71.8°
Sets 22:41:36 0° 142° (SE) 3,680 - -72.6°
